Regional Weather Roundup
Issued by NWS State College, PA

Home | Current Version | Previous Version | Text Only | Print | Product List | Glossary Off
Versions: 1 2 3 4 5 6 7 8 9 10 11 12 13 14 15 16 17 18 19 20 21 22 23 24 25 26 27 28 29 30 31 32 33 34 35 36 37 38 39 40 41 42 43 44 45 46 47 48 49 50

000
ASUS41 KCTP 230910
RWRCTP

REGIONAL WEATHER ROUNDUP
NATIONAL WEATHER SERVICE STATE COLLEGE PA
500 AM EDT SAT AUG 23 2014

Note: "fair" indicates few or no clouds below 12,000 feet with no
significant weather and/or obstructions to visibility.

* = STATION THAT DOES NOT REPORT PRECIPITATION /E.G. RAIN...SNOW...ETC/
    THUNDER OR FOG.

PAZ002>004-007>009-013>016-020>023-029>032-231000-
WESTERN PENNSYLVANIA

CITY           SKY/WX    TMP DP  RH WIND       PRES   REMARKS
ERIE           MOCLDY    70  66  87 N8        29.99S
MEADVILLE      FOG       63  62  97 N7        30.01S VSB 1/4
FRANKLIN*      CLOUDY    63  59  88 N5        30.02S VSB 1/2
NEW CASTLE     NOT AVBL
BEAVER COUNTY  NOT AVBL
BUTLER*        CLOUDY    66  64  94 NE5       30.00R VSB 1/4
PITTSBURGH INT FOG       69  69 100 CALM      29.98R VSB 1/4
PITTSBURGH     FOG       68  66  94 CALM      29.97S VSB<1/4
INDIANA*       CLOUDY    70  68  94 CALM      30.03R FOG
LATROBE        CLOUDY    70  70 100 CALM      29.99R FOG
WASHINGTON CO* CLOUDY    66  66 100 CALM      29.99R VSB<1/4
$$

PAZ004>006-010>012-017>019-024>028-033>037-041-042-045-046-049>053-231000-
CENTRAL PENNSYLVANIA

CITY           SKY/WX    TMP DP  RH WIND       PRES   REMARKS
BRADFORD       FOG       64  64 100 CALM      30.03R VSB 1/2
DUBOIS         FOG       66  66 100 SE3       30.00S VSB 1/4
CLEARFIELD     FOG       66  66 100 CALM      30.01R VSB 1/4
JOHNSTOWN      CLOUDY    68  65  90 SW3       30.02S FOG
ALTOONA        CLOUDY    69  68  96 CALM      30.01R FOG
STATE COLLEGE  CLOUDY    68  67  96 CALM      30.00S FOG
WILLIAMSPORT   LGT RAIN  65  61  87 E14       30.00R
SELINSGROVE    LGT RAIN  66  63  90 SE5       30.02S
FT INDIANTOWN  CLOUDY    64  64 100 NE5       30.03S
CAPITAL CITY   CLOUDY    68  60  75 SE10      30.01S
HARRISBURG     CLOUDY    70  60  70 E6        30.01R
YORK           CLOUDY    67  61  81 E5        30.01R
$$

PAZ038>040-043-044-047-048-054-055-060>062-067>071-231000-
EASTERN PENNSYLVANIA

CITY           SKY/WX    TMP DP  RH WIND       PRES   REMARKS
SCRANTON       LGT RAIN  66  59  78 CALM      30.05R
MOUNT POCONO   CLOUDY    60  58  92 E8        30.08R
ALLENTOWN      LGT RAIN  67  60  78 E6        30.04S
QUAKERTOWN*    CLOUDY    64  63  94 MISG      30.05S
READING        RAIN      66  63  90 CALM      30.03S
LANCASTER      CLOUDY    66  61  84 E3        30.03R
COATESVILLE    CLOUDY    64  64 100 E9        30.04R
POTTSTOWN      CLOUDY    65  61  87 E3        30.04S
BLUE BELL      PTCLDY    64  63  94 CALM      30.03S
DOYLESTOWN     CLOUDY    64  62  93 NE5       30.03S
WILLOW GROVE   NOT AVBL
NORTH PHILA    CLOUDY    69  60  73 NE9       30.04S
PHILADELPHIA   MOCLDY    68  62  81 NE7       30.02S
$$


USA.gov is the U.S. government's official web portal to all federal, state and local government web resources and services.